Showing default

OPS 3662 (VELA 3), 836

Orbit data source: Space-Track

OPS 3662 (VELA 3), 836 is a payload satellite owned by USAF SSD (US) in HEO that was launched on Fri, 17 Jul 1964 UTC via an ATLAS AGENA D launch vehicle from the Air Force Eastern Test Range (AFETR). Payload-class satellites include a variety of spacecraft equipped with specific instruments for various scientific and technological missions. These include communications satellites like Starlink; space stations such as the ISS; scientific satellites like the Hubble; Earth observation satellites from companies like Planet Labs, Umbra, and HawkEye 360; GPS; miniature CubeSats for education and research; and military/defense satellites.

Loading next visibility...
Identifier
836, 1964-040A
Orbit
HEO
Country
Flag of USUS
Related business
Manufacturer
TRW
Mission
Spacecraft
Bus & Motor
VELA, BE-3
Mass
~227 kg wet, 125 kg dry
Launch date (UTC)
1964-07-17 (61 years ago)
Launch vehicle
ATLAS AGENA D
Launch site
Air Force Eastern Test Range (AFETR)
Object type
Payload
Rocket body
Debris
Shape & HBR
Unknown
Radar Cross Section
Medium (>0.1 m² and <1 m²)

Expand to show TLE details & history
Last TLE update: 1 month ago

TLE from 1 month ago
0 OPS 3662 (VELA 3)
1   836U 64040A   25273.54461856  .00000621  00000-0  00000+0 0  9997
2   836  51.7024 124.1098 4701837 285.9915   0.6141  0.23918308 10379
Epoch: 2025-09-30T13:04Z
TLE epoch observation values (Epoch: 2025-09-30T13:04:15.043Z)
Latitude
-48.52583°
Longitude
-144.8103°
Altitude
51,604.5 km
Speed
3.181 km/s
True Right ascension
04h 03m 08s
True Declination
-48° 30' 17"
Sunlit
Object was in daylight at epoch
Visualization orbit readout
Latitude
Unknown
Longitude
Unknown
Altitude
Unknown
Speed
Unknown
Apparent Right ascension
Unknown
Apparent Declination
Unknown
Sunlit
N/A
Visualization observer readout
Local Sidereal Time
15:24:24
Azimuth
Unknown
Elevation
Unknown
Doppler factor
Unknown
Orbital elements
Apogee altitude
154,792.869 km
Perigee altitude
51,703.738 km
Semi-major axis
109,626.441 km
Eccentricity
0.47018
Inclination
51.7024°
RAAN
124.1098°
Arg. of periapsis
285.9915°
True anomaly
1.93056°
Mean anomaly
0.6141°
Eccentric anomaly
1.15901°
Mean motion
0.0598 °/min
Orbital period
6,020.5 mins
BSTAR
0
Loading maneuver chart data...
Computing Atmospheric mass density...
Loading historical data...
Loading historical data...
Loading historical data...
Loading historical data...
Loading historical data...
Loading historical data...
Loading historical data...
Other satellites on launch #40 in the year 1964 (1964-07-17 UTC)

Documentation

Showing up to 5 results
|